This is the latest recevied weather packets stored in our database for station/object ED4YAF-13. If no packets are shown the sender has not sent any weather packets the latest 10 day(s).
| Time | Temp. | Humidity | Pressure | Rain* | Wind** | Luminosity | Snow |
|---|---|---|---|---|---|---|---|
| 1787904719 | 7.22° C | 73% | 1022.7 hPa | - | - | - | - |
| 1787903819 | 6.67° C | 77% | 1022.9 hPa | - | - | - | - |
| 1787902919 | 6.11° C | 78% | 1022.9 hPa | - | - | - | - |
| 1787902010 | 6.11° C | 79% | 1022.8 hPa | - | - | - | - |
| 1787901106 | 5.56° C | 79% | 1023.1 hPa | - | - | - | - |
| 1787900199 | 5.56° C | 79% | 1022.6 hPa | - | - | - | - |
| 1787898568 | 5.56° C | 79% | 1022 hPa | - | - | - | - |
| 1787897657 | 5.56° C | 78% | 1021.7 hPa | - | - | - | - |
| 1787896753 | 6.11° C | 78% | 1021.7 hPa | - | - | - | - |
| 1787895853 | 6.11° C | 78% | 1021.2 hPa | - | - | - | - |
| 1787894932 | 5.56° C | 78% | 1021.4 hPa | - | - | - | - |
| 1787894028 | 6.11° C | 78% | 1021.3 hPa | - | - | - | - |
| 1787892228 | 6.11° C | 79% | 1021.2 hPa | - | - | - | - |
| 1787891322 | 6.11° C | 80% | 1021.4 hPa | - | - | - | - |
| 1787890422 | 6.11° C | 82% | 1021.1 hPa | - | - | - | - |
| 1787889522 | 6.67° C | 82% | 1021.1 hPa | - | - | - | - |
| 1787888610 | 6.67° C | 83% | 1021.2 hPa | - | - | - | - |
| 1787887710 | 6.67° C | 85% | 1021.5 hPa | - | - | - | - |
| 1787886810 | 6.67° C | 86% | 1021.3 hPa | - | - | - | - |
| 1787885910 | 6.67° C | 85% | 1021.5 hPa | - | - | - | - |
| 1787885010 | 7.22° C | 83% | 1021 hPa | - | - | - | - |
| 1787884110 | 7.22° C | 83% | 1021.1 hPa | - | - | - | - |
| 1787883210 | 7.22° C | 82% | 1020.9 hPa | - | - | - | - |
| 1787882310 | 7.22° C | 82% | 1021.2 hPa | - | - | - | - |
| 1787881398 | 7.22° C | 81% | 1021 hPa | - | - | - | - |
* Rain since midnight (hover to see other rain measurements)
** Current wind speed in m/s (hover to see current wind gust speed)